This demonstration page uses our WeatherBlox Daily Observations layout. Learn more.

38.88101, -77.10428

Hourly Observations for July 17, 2019

Temp ( °F °C ) Dew Point ( °F °C ) Humidity (%) Winds ( mph kmh ) Pressure ( in mb ) Visibility ( mi km ) Precip ( " mm )
12:52 am 00:52 Cloudy 83 28.3 71 21.7 67 67 SSW 5 7 30 1016 10 16.09344 0 0
1:52 am 01:52 Cloudy 82 27.8 71 21.7 69 69 SSW 7 11 30 1016 10 16.09344 0 0
2:52 am 02:52 Cloudy 82 27.8 71 21.7 69 69 SW 7 11 29.97 1015 10 16.09344 0 0
3:52 am 03:52 Cloudy 80 26.7 72 22.2 76 76 S 9 15 29.97 1015 10 16.09344 0 0
4:52 am 04:52 Cloudy 79 26.1 72 22.2 79 79 SSW 7 11 29.97 1015 10 16.09344 0 0
5:52 am 05:52 Mostly Cloudy 79 26.1 72 22.2 79 79 S 8 13 29.97 1015 10 16.09344 0 0
6:52 am 06:52 Mostly Cloudy 79 26.1 73 22.8 82 82 S 8 13 29.97 1015 10 16.09344 0 0
7:52 am 07:52 Partly Cloudy 81 27.2 74 23.3 79 79 SSW 10 17 29.97 1015 8 12.874752 0 0
8:52 am 08:52 Partly Cloudy 83 28.3 76 24.4 79 79 S 9 15 29.97 1015 9 14.484096 0 0
9:52 am 09:52 Mostly Cloudy 85 29.4 77 25 77 77 S 10 17 29.97 1015 9 14.484096 0 0
10:52 am 10:52 Mostly Cloudy 87 30.6 77 25 72 72 S 12 19 29.97 1015 9 14.484096 0 0
11:52 am 11:52 Mostly Cloudy 91 32.8 78 25.6 66 66 SSE 8 13 29.97 1015 10 16.09344 0 0
12:52 pm 12:52 Mostly Cloudy 92 33.3 76 24.4 60 60 S 13 20 29.94 1014 10 16.09344 0 0
1:52 pm 13:52 Mostly Cloudy 93 33.9 75 23.9 56 56 S 14 22 29.91 1013 10 16.09344 0 0
2:52 pm 14:52 Partly Cloudy 94 34.4 75 23.9 54 54 S 10 17 29.88 1012 10 16.09344 0 0
3:52 pm 15:52 Partly Cloudy 93 33.9 75 23.9 56 56 S 14 22 29.85 1011 10 16.09344 0 0
4:52 pm 16:52 Mostly Cloudy 94 34.4 72 22.2 49 49 S 17 28 29.83 1010 10 16.09344 0 0
5:27 pm 17:27 Mostly Cloudy with Thunderstorms 93 33.9 71 21.7 49 49 SSW 17 28 29.88 1012 9 14.484096 0 0
5:36 pm 17:36 Windy with Storms Likely 88 31.1 69 20.6 54 54 W 26 43 29.91 1013 7 11.265408 0.001 0.001
5:47 pm 17:47 Mostly Cloudy with Heavy Thunderstorms 77 25 70 21 79 79 SW 32 52 29.94 1014 1.5 2.414016 0.001 0.001
5:52 pm 17:52 Mostly Cloudy with Heavy Thunderstorms 75 23.9 70 21.1 84 84 WSW 22 35 29.91 1013 1 1.609344 0.19 4.826
5:59 pm 17:59 Cloudy with Heavy Thunderstorms 75 23.9 70 21.1 84 84 SW 12 19 29.91 1013 3 4.828032 0.06 1.524
6:06 pm 18:06 Cloudy with Thunderstorms 75 23.9 71 21.7 88 88 SSW 12 19 29.91 1013 5 8.04672 0.09 2.286
6:15 pm 18:15 Mostly Cloudy with Light Rain 76 24.4 71 21.7 85 85 SSW 15 24 29.91 1013 10 16.09344 0.09 2.286
6:52 pm 18:52 Mostly Cloudy with Light Rain 76 24.4 72 22.2 88 88 S 7 11 29.88 1012 10 16.09344 0.09 2.286
7:52 pm 19:52 Mostly Cloudy with Light Rain 78 25.6 73 22.8 85 85 SSW 3 6 29.88 1012 10 16.09344 0.01 0.254
8:52 pm 20:52 Mostly Cloudy 78 25.6 73 22.8 85 85 S 5 7 29.85 1011 10 16.09344 0.001 0.001
9:52 pm 21:52 Cloudy 79 26.1 74 23.3 85 85 S 3 6 29.88 1012 10 16.09344 0 0
9:54 pm 21:54 Cloudy 79 26.1 74 23.3 85 85 S 5 7 29.91 1013 10 16.09344 0 0
10:52 pm 22:52 Cloudy 79 26.1 75 23.9 88 88 SSW 7 11 29.88 1012 10 16.09344 0 0
11:52 pm 23:52 Mostly Clear 79 26.1 74 23.3 85 85 Calm 29.85 1011 10 16.09344 0 0

Powered by AerisWeather